Regional Weather Roundup
Issued by NWS Cleveland, OH

Home | Current Version | Previous Version | Graphics & Text | Print | Product List | Glossary On
Versions: 1 2 3 4 5 6 7 8 9 10 11 12 13 14 15 16 17 18 19 20 21 22 23 24 25 26 27 28 29 30 31 32 33 34 35 36 37 38 39 40 41 42 43 44 45 46 47 48 49 50
000
ASUS41 KCLE 040310
RWRCLE
OHIO REGIONAL WEATHER ROUNDUP
NATIONAL WEATHER SERVICE CLEVELAND, OH
1000 PM EST TUE MAR 03 2015

NOTE: "FAIR" INDICATES FEW OR NO CLOUDS BELOW 12,000 FEET WITH NO
SIGNIFICANT WEATHER AND/OR OBSTRUCTIONS TO VISIBILITY.

OHZ001>008-015>018-024>027-034-035-043-044-040400-
   NORTHWEST OHIO

CITY           SKY/WX    TMP DP  RH WIND       PRES   REMARKS
DEFIANCE       CLOUDY    37  31  78 W10       29.77R
FINDLAY        CLOUDY    36  32  85 W21       29.77R
TOLEDO EXPRESS CLOUDY    35  31  85 W15G22    29.75R WCI  25
TOLEDO EXEC    CLOUDY    36  32  85 W17       29.75R
LIMA           CLOUDY    36  36 100 W16       29.77S
$$

OHZ009>014-019>023-028>033-038-089-040400-
   NORTHEAST OHIO

CITY           SKY/WX    TMP DP  RH WIND       PRES   REMARKS
CLE-HOPKINS    CLOUDY    37  34  89 W15G25    29.77R
CLE-LAKEFRONT  CLOUDY    37  33  85 W18       29.74R
CUY CO. ARPT   CLOUDY    41  30  65 W20G30    29.74R
LORAIN-ELYRIA  CLOUDY    37  33  85 W21       29.75R
ASHTABULA      CLOUDY    38  35  89 W16G24    29.73R
AKRON-CANTON   CLOUDY    41  37  86 W18G28    29.75R
WOOSTER        CLOUDY    39  36  89 W16       29.77R
MANSFIELD      CLOUDY    37  36  96 W10G21    29.75R
YOUNGSTOWN     CLOUDY    40  38  93 W17G26    29.73R
$$

OHZ042-051>053-060>062-070>072-077>081-040400-
  SOUTHWEST OHIO

CITY           SKY/WX    TMP DP  RH WIND       PRES   REMARKS
CINC-COVINGTON LGT RAIN  45  43  93 W7        29.84S
CINC-LUNKEN    LGT RAIN  44  44 100 W6        29.86R
HAMILTON       RAIN      43  41  93 W5        29.85R FOG
DAYTON         LGT RAIN  39  37  92 W12       29.83S
WRIGHT-PAT AFB LGT RAIN  39  39  98 W8        29.82S
DAYTON GENERAL LGT RAIN  41  40  96 W7        29.82S FOG
WILMINGTON     LGT RAIN  42  40  92 W10       29.82R
$$

OHZ036-037-039>041-045>050-054>059-063>069-073>076-082>088-040400-
  CENTRAL AND SOUTHEAST OHIO

CITY           SKY/WX    TMP DP  RH WIND       PRES   REMARKS
COLUMBUS       LGT RAIN  39  37  92 NW10      29.80R
OSU AIRPORT    LGT RAIN  39  37  92 W7        29.80R
BOLTON FIELD   RAIN     N/A N/A N/A W10G16    29.81S
RICKENBACK AFB LGT RAIN  40  40  99 W9        29.81R
NEWARK         LGT RAIN  43  41  93 W9        29.80R
MARION         CLOUDY    37  34  89 W16G24    29.79S
LANCASTER      LGT RAIN  43  42  97 W9        29.82R FOG
ZANESVILLE     LGT RAIN  45  42  89 W13G22    29.79R
NEW PHILLY     LGT RAIN  46  42  86 W9        29.78R FOG
$$


USA.gov is the U.S. government's official web portal to all federal, state and local government web resources and services.